星链-2339 (STARLINK-2339 )

导读 | 豆包AI

STARLINK-2339是美国太空探索技术公司SpaceX旗下星链(Starlink)星座的一员,于2021年3月14日由猎鹰9号火箭发射升空,运行在近地低轨道(LEO)。作为星链计划第一代互联网通信卫星,它为全球提供高速卫星互联网接入服务,支撑偏远地区网络覆盖、应急通信等应用场景,是SpaceX构建大规模低轨卫星星座的重要组成部分。

基本信息
目录编号:
47881
目录名称:
STARLINK-2339
国际标识:
2021-021X
轨道中心:
EARTH
卫星名称:
星链-2339
卫星全名:
星链-2339 (STARLINK-2339 )
卫星状态:
已陨落 最后检测时间 2025-01-15
发射日期:
2021-03-14 UTC
国别 :
美国 (US)
星等 :
--
轨道信息
数据来源 国际轨道数据
星历时间: 2025-01-15T14:32:31+0800
轨道信息已过期423天
半长轴: 6530.385km
偏心率: 0.0002966
轨道倾角: 53.027°
近地点辐角 201.180°
升交点赤经 337.896°
平近点角 266.538°
近地点: 150.313km
远地点: 154.187km
周期: 87.532分钟
每日圈数: 16.451088
详细信息
固有亮度:
5
最大亮度:
2.5
卫星平台:
Starlink V1.0
覆盖范围:
全球
运营商:
太空探索技术公司
运营商所在国:
美国
制造商(研发单位):
太空探索技术公司
制造商所在国:
美国
使用方式:
暂无
卫星简介
星链(Starlink)计划是由太空探索技术公司(SpaceX)提出的一个巨型低轨卫星互联网星座项目,计划在2019年至2024年间在太空搭建由约1.2万颗卫星组成的“星链”网络,其中1584颗将部署在地球上空550千米处的近地轨道,并从2020年开始工作。该卫星仍在工作。